Terminal Aerodrome Forecast
Issued by NWS

Home | Current Version | Previous Version | Text Only | Print | Product List | Glossary On
Versions: 1 2 3 4 5 6 7 8 9 10 11 12 13 14 15 16
917
FTUS44 KMAF 142334
TAFFST
TAF
KFST 142334Z 1500/1524 30006KT P6SM SKC
     FM151500 32014G24KT P6SM SKC=

USA.gov is the U.S. government's official web portal to all federal, state and local government web resources and services.